カタログに戻る

USA 417

運用中軍事VLEO
NORAD 61038·PAYLOAD·🇺🇸 United States

打ち上げ Sep 6, 2024 から Vandenberg Space Force Base

Loading…

次のパス (今後24時間)

TLE

古いSource: Mike McCants

元期: Aug 25, 2026, 22:43 UTC

1 61038U 24160T   26237.94683694 0.00000000  00000-0  00000-0 0    03
2 61038  70.0230 181.8494 0003000 252.0505 107.9495 14.96713200    07

AllMySatでUSA 417をリアルタイム追跡

Download on the App Store